Location: São Paulo
(23.5507°S, 46.6334°W)
Time: 09:46:43
(UTC-03:00)

Explorer 7 - Pass Details

Date: 25 February 2026
Orbit: 430 x 541 km, 50.2° (Epoch: 11 March)

Event Time Altitude Azimuth Distance (km) Brightness Sun altitude
Rises 08:27:08 0° 238° (WSW) 2,541 9.8 32.7°
Reaches altitude 10° 08:29:38 10° 252° (WSW) 1,633 8.8 33.3°
Maximum altitude 08:32:37 23° 306° (NW) 1,010 8.0 34.0°
Drops below altitude 10° 08:35:29 10° 1° (N) 1,569 9.3 34.6°
Sets 08:37:51 0° 16° (NNE) 2,415 10.3 35.2°
